Lid_Strength_Index
6 5 5 5 5 5 5 5 5 4 4 4 4 4 4 4 4 4 4 4 5 4 4 5 5 5 6 6 7 7 8 8 9 7 8 10 12 12 12 10 11 10 10
7 8 8 7 7 7 7 7 7 6 6 6 6 6 6 6 5 5 5 6 6 6 6 6 6 6 6 6 7 8 8 8 8 9 8 12 13 12 12 13 12 11 11
9 9 9 9 9 9 9 9 9 8 8 8 8 8 8 8 7 7 7 7 7 7 7 7 7 7 8 7 7 7 8 8 8 9 9 14 14 14 14 14 13 13 12
9 10 10 10 10 10 10 10 10 10 10 10 10 10 10 9 9 10 10 9 9 8 8 7 7 8 8 8 9 8 9 9 9 9 9 10 15 15 14 15 15 14 14
10 10 11 10 11 11 11 11 11 11 11 11 11 11 10 10 11 10 10 10 10 10 9 9 9 9 10 9 9 9 9 9 9 10 10 11 15 16 16 14 14 15 14
11 11 11 11 12 12 12 12 12 12 12 12 12 12 12 12 11 11 10 10 11 11 11 10 10 11 11 10 9 9 8 10 11 10 10 11 11 13 13 13 14 16 16
12 12 13 13 13 13 13 13 13 12 12 12 12 12 12 11 11 10 10 10 11 10 11 11 11 10 11 10 9 9 9 8 7 8 10 9 9 9 11 13 13 14 14
13 13 13 14 14 13 14 14 13 13 13 13 12 12 12 12 12 11 11 10 10 11 11 11 10 10 9 10 10 10 10 9 9 8 7 7 7 8 10 11 12 13 12
14 14 14 14 15 14 14 14 13 13 13 13 13 13 13 13 12 11 11 11 11 11 10 10 10 10 9 8 9 10 10 9 8 7 7 6 6 6 9 11 13 14 14
15 15 14 14 15 15 14 14 14 14 14 13 13 12 13 13 11 11 10 10 11 10 9 9 9 9 8 8 9 10 11 10 10 10 10 9 7 8 8 10 11 13 13
16 16 15 15 16 15 15 14 15 14 14 14 13 11 11 11 10 10 9 10 10 11 10 10 9 8 8 8 8 9 9 9 9 9 9 9 9 9 10 10 10 11 13
18 18 18 17 16 15 15 15 14 14 14 14 13 12 10 10 10 10 10 10 9 11 11 11 10 9 8 8 8 8 8 8 9 10 9 9 9 9 9 10 10 10 10
21 21 19 17 16 15 15 13 13 13 14 14 14 13 12 11 10 10 10 10 10 10 10 10 9 9 8 8 8 8 9 9 9 9 9 9 9 9 11 12 13 14 15
22 20 18 17 16 16 14 14 13 12 12 12 13 13 12 11 10 10 10 10 10 9 9 9 9 9 9 9 9 8 8 8 8 8 9 10 11 11 11 12 13 13 15
22 20 19 17 17 16 15 14 13 12 11 11 11 11 11 11 10 9 9 9 9 9 9 8 9 9 9 8 8 8 8 8 8 9 10 10 11 12 13 12 13 14 15
22 20 19 19 17 17 16 15 13 12 11 10 9 10 9 9 8 9 8 8 7 7 8 9 9 8 9 9 9 8 8 8 8 9 9 10 12 13 14 14 13 13 15
24 22 20 20 19 18 18 17 17 14 11 10 10 10 9 9 9 9 8 8 7 7 8 8 7 7 8 8 7 8 8 8 8 9 9 10 11 12 13 14 14 13 14
25 24 23 21 20 19 18 17 17 16 16 13 10 10 9 9 9 8 9 8 8 6 7 7 7 7 7 8 8 8 8 8 8 9 9 10 10 12 12 13 12 12 13
24 22 21 21 20 19 19 17 16 15 14 12 11 10 11 10 9 11 11 11 11 9 9 8 8 8 8 7 8 8 8 9 9 9 9 9 10 10 11 11 11 12 12
22 23 22 20 19 19 17 16 15 14 12 11 11 11 10 11 12 13 14 14 14 14 13 12 12 12 11 10 9 9 9 9 9 9 10 10 10 10 11 12 12 13 13
21 20 20 19 18 17 17 16 15 14 12 11 12 12 12 13 14 15 16 16 17 17 16 15 15 15 15 14 12 11 11 11 11 11 11 11 11 11 11 11 12 12 13
19 19 19 19 18 17 17 16 15 14 14 14 14 14 14 15 16 17 17 18 18 18 18 17 17 17 17 17 16 13 13 14 13 13 13 13 13 13 13 13 13 14 14
19 19 18 18 18 18 17 16 16 15 15 15 15 16 16 17 17 18 18 18 18 19 19 18 18 19 18 18 17 17 16 17 17 16 15 14 14 14 14 14 15 15 16
20 19 19 19 19 18 17 17 17 17 17 16 16 17 17 18 18 18 19 19 19 19 19 20 20 21 20 20 19 19 18 18 18 17 17 16 16 16 16 16 16 16 16
20 20 20 19 19 19 18 18 17 17 17 17 17 17 17 17 18 18 19 19 19 19 20 20 21 21 21 21 21 21 20 20 20 21 19 18 18 18 18 18 18 17 18
21 20 20 20 19 19 19 19 19 18 18 18 18 18 18 18 18 18 19 19 19 20 20 20 20 21 21 21 21 20 20 18 19 23 20 19 20 20 20 20 21 20 20